GW6891 Weather Reports


time (UTC)temp
C
wind
direction
speed
KPH
gust
KPH
rain 1hr
cm
rain 24hr
cm
rain mn
cm
humidity
%
barometer
mb
20260505111504 21 291 0.0 0.0 0.00 0.00 0.00 94 1019.0
20260505111005 21 290 1.6 1.6 0.00 0.00 0.00 94 1019.0
20260505110505 21 290 1.6 1.6 0.00 0.00 0.00 94 1019.0
20260505102004 20 291 0.0 0.0 0.00 0.00 0.00 94 1017.9
20260505101504 20 291 0.0 0.0 0.00 0.00 0.00 93 1017.9
20260505101004 20 291 0.0 1.6 0.00 0.00 0.00 93 1017.9
20260505100506 20 291 0.0 0.0 0.00 0.00 0.00 93 1017.9
20260505100004 20 291 0.0 0.0 0.00 0.00 0.00 93 1017.9
20260505095504 20 324 1.6 1.6 0.00 0.00 0.00 94 1017.9
20260505095005 20 325 0.0 0.0 0.00 0.00 0.00 93 1017.9
20260505094505 20 325 1.6 1.6 0.00 0.00 0.00 93 1017.9
20260505094004 20 310 1.6 1.6 0.00 0.00 0.00 93 1017.9
20260505093504 20 310 0.0 0.0 0.00 0.00 0.00 93 1017.9
20260505093004 21 310 0.0 0.0 0.00 0.00 0.00 92 1017.9
20260505092504 21 310 1.6 1.6 0.00 0.00 0.00 92 1017.9
20260505092005 21 310 1.6 1.6 0.00 0.00 0.00 92 1017.6
20260505091505 21 310 0.0 0.0 0.00 0.00 0.00 91 1017.6
20260505091005 21 310 1.6 1.6 0.00 0.00 0.00 91 1017.9
20260505090504 21 309 0.0 0.0 0.00 0.00 0.00 90 1017.9
20260505090004 21 309 1.6 1.6 0.00 0.00 0.00 90 1017.6
20260505085506 21 310 1.6 1.6 0.00 0.00 0.00 89 1017.6
20260505085004 21 309 1.6 1.6 0.00 0.00 0.00 89 1017.6
20260505084504 21 309 0.0 0.0 0.00 0.00 0.00 88 1017.3
20260505084005 21 309 0.0 0.0 0.00 0.00 0.00 87 1017.3
20260505083505 22 305 0.0 0.0 0.00 0.00 0.00 87 1017.3
20260505083005 22 324 0.0 0.0 0.00 0.00 0.00 86 1017.3
20260505082505 22 324 0.0 0.0 0.00 0.00 0.00 85 1017.3
20260505082005 22 339 1.6 3.2 0.00 0.00 0.00 85 1016.9
20260505081504 22 332 1.6 3.2 0.00 0.00 0.00 84 1016.9
20260505081004 22 337 0.0 0.0 0.00 0.00 0.00 84 1017.3
20260505080504 22 332 0.0 0.0 0.00 0.00 0.00 83 1017.3
20260505080005 22 336 1.6 1.6 0.00 0.00 0.00 83 1016.9
20260505075504 22 332 1.6 4.8 0.00 0.00 0.00 82 1016.9
20260505075008 22 341 0.0 3.2 0.00 0.00 0.00 81 1016.9
20260505074504 22 337 1.6 3.2 0.00 0.00 0.00 80 1016.9
20260505074004 22 339 0.0 1.6 0.00 0.00 0.00 79 1016.9
20260505073504 23 326 0.0 0.0 0.00 0.00 0.00 78 1016.6
20260505073004 23 319 1.6 3.2 0.00 0.00 0.00 77 1016.6
20260505072504 23 3 4.8 4.8 0.00 0.00 0.00 77 1016.6
20260505072004 23 352 3.2 4.8 0.00 0.00 0.00 76 1016.6
20260505071505 23 337 3.2 4.8 0.00 0.00 0.00 75 1016.6
20260505071005 23 327 0.0 0.0 0.00 0.00 0.00 75 1016.6
20260505070505 23 342 1.6 3.2 0.00 0.00 0.00 74 1016.6
20260505070005 23 341 3.2 3.2 0.00 0.00 0.00 74 1016.3
20260505065505 24 348 4.8 4.8 0.00 0.00 0.00 73 1016.3
20260505065004 24 318 8.0 11.3 0.00 0.00 0.00 72 1016.3
20260505064505 24 341 4.8 4.8 0.00 0.00 0.00 72 1016.3
20260505064004 24 345 4.8 4.8 0.00 0.00 0.00 72 1016.3
20260505063505 25 354 6.4 8.0 0.00 0.00 0.00 72 1016.3
20260505063005 25 298 1.6 3.2 0.00 0.00 0.00 72 1016.3
20260505062504 25 327 1.6 3.2 0.00 0.00 0.00 72 1016.3
20260505062004 25 346 4.8 8.0 0.00 0.00 0.00 71 1016.3
20260505061505 25 7 1.6 3.2 0.00 0.00 0.00 71 1016.3
20260505061004 25 352 3.2 4.8 0.00 0.00 0.00 70 1016.3
20260505060505 26 14 8.0 9.7 0.00 0.00 0.00 69 1016.3
20260505060004 26 5 3.2 4.8 0.00 0.00 0.00 67 1015.9
20260505055504 26 349 3.2 4.8 0.00 0.00 0.00 64 1015.9
20260505055004 26 304 4.8 6.4 0.00 0.00 0.00 63 1015.9
20260505054504 26 327 0.0 0.0 0.00 0.00 0.00 64 1015.9
20260505054004 26 326 1.6 4.8 0.00 0.00 0.00 63 1015.9
20260505053508 27 9 1.6 1.6 0.00 0.00 0.00 62 1015.2
20260505053005 27 353 4.8 4.8 0.00 0.00 0.00 62 1015.2
20260505052504 27 324 0.0 0.0 0.00 0.00 0.00 62 1015.2
20260505052004 27 323 1.6 1.6 0.00 0.00 0.00 61 1015.9
20260505051504 27 234 3.2 3.2 0.00 0.00 0.00 60 1015.9
20260505051004 27 279 0.0 1.6 0.00 0.00 0.00 60 1016.3
20260505050505 27 317 0.0 0.0 0.00 0.00 0.00 60 1016.3
20260505041505 28 332 1.6 1.6 0.00 0.00 0.00 59 1015.2
20260505041004 27 264 1.6 1.6 0.00 0.00 0.00 59 1015.2
20260505040504 27 231 3.2 4.8 0.00 0.00 0.00 60 1015.2
20260505040005 27 319 3.2 4.8 0.00 0.00 0.00 61 1015.2
20260505035504 28 353 1.6 3.2 0.00 0.00 0.00 59 1015.2
20260505035004 28 237 3.2 4.8 0.00 0.00 0.00 59 1015.2
20260505034506 28 320 1.6 1.6 0.00 0.00 0.00 58 1015.2
20260505034005 27 322 1.6 3.2 0.00 0.00 0.00 59 1015.2
20260505033504 28 333 1.6 1.6 0.00 0.00 0.00 59 1015.2
20260505033004 28 273 0.0 0.0 0.00 0.00 0.00 59 1015.2
20260505032505 27 111 3.2 4.8 0.00 0.00 0.00 59 1015.9
20260505032004 27 129 4.8 4.8 0.00 0.00 0.00 61 1015.9
20260505031504 28 326 1.6 1.6 0.00 0.00 0.00 58 1015.9
20260505031004 29 297 0.0 1.6 0.00 0.00 0.00 57 1015.9
20260505030505 28 294 1.6 1.6 0.00 0.00 0.00 58 1015.9
20260505030005 28 229 0.0 1.6 0.00 0.00 0.00 56 1016.3
20260505025504 28 320 1.6 3.2 0.00 0.00 0.00 59 1016.3
20260505025004 27 301 1.6 1.6 0.00 0.00 0.00 59 1016.3
20260505024504 28 3 3.2 3.2 0.00 0.00 0.00 59 1016.6
20260505024006 29 331 3.2 4.8 0.00 0.00 0.00 60 1016.6
20260505023504 30 290 1.6 1.6 0.00 0.00 0.00 57 1016.6
20260505023006 30 305 1.6 1.6 0.00 0.00 0.00 59 1016.6
20260505022504 29 310 1.6 1.6 0.00 0.00 0.00 56 1016.9
20260505022004 28 296 1.6 1.6 0.00 0.00 0.00 58 1016.9
20260505021504 28 322 1.6 1.6 0.00 0.00 0.00 59 1016.9
20260505021004 27 271 1.6 3.2 0.00 0.00 0.00 61 1016.9
20260505020505 27 232 3.2 4.8 0.00 0.00 0.00 62 1016.9
20260505020004 26 275 0.0 0.0 0.00 0.00 0.00 64 1017.3
20260505015504 27 234 3.2 3.2 0.00 0.00 0.00 61 1017.3
20260505015005 28 270 1.6 3.2 0.00 0.00 0.00 60 1017.3
20260505014506 27 286 3.2 3.2 0.00 0.00 0.00 62 1017.3
20260505014005 27 279 1.6 1.6 0.00 0.00 0.00 65 1017.3
20260505013505 27 295 1.6 1.6 0.00 0.00 0.00 65 1017.3
20260505013004 27 275 0.0 0.0 0.00 0.00 0.00 66 1017.3
20260505012504 26 262 4.8 6.4 0.00 0.00 0.00 66 1017.6
20260505012004 27 291 1.6 1.6 0.00 0.00 0.00 63 1017.6
20260505011504 28 297 0.0 1.6 0.00 0.00 0.00 65 1017.6
20260505011005 27 294 1.6 1.6 0.00 0.00 0.00 64 1017.9
20260505010504 26 266 1.6 1.6 0.00 0.00 0.00 68 1017.9
20260505010005 26 261 0.0 0.0 0.00 0.00 0.00 69 1017.9
20260505005506 26 286 0.0 3.2 0.00 0.00 0.00 70 1017.9
20260505005004 28 274 1.6 1.6 0.00 0.00 0.00 64 1017.9
20260505004504 28 289 0.0 1.6 0.00 0.00 0.00 66 1017.9
20260505004005 26 262 1.6 3.2 0.00 0.00 0.00 69 1017.9
20260505003504 27 288 1.6 1.6 0.00 0.00 0.00 68 1018.3
20260505003005 26 303 0.0 0.0 0.00 0.00 0.00 71 1018.3
20260505002504 25 278 0.0 0.0 0.00 0.00 0.00 75 1019.0
20260505002004 25 285 1.6 1.6 0.00 0.00 0.00 74 1019.0
20260505001504 26 251 1.6 1.6 0.00 0.00 0.00 70 1019.0
20260505001005 25 294 0.0 0.0 0.00 0.00 0.00 73 1019.0
20260505000505 26 255 0.0 0.0 0.00 0.00 0.00 71 1019.0
20260505000005 26 313 1.6 1.6 0.00 0.00 0.00 72 1019.0
20260504235505 27 273 1.6 1.6 0.00 0.00 0.00 70 1019.0
20260504235004 26 277 0.0 0.0 0.00 0.00 0.00 69 1019.0
20260504234505 26 283 1.6 1.6 0.00 0.00 0.00 75 1019.0
20260504234007 26 327 0.0 1.6 0.00 0.00 0.00 76 1019.0
20260504233505 25 296 1.6 1.6 0.00 0.00 0.00 77 1019.0
20260504233004 24 300 3.2 3.2 0.00 0.00 0.00 77 1019.0
20260504232504 23 274 1.6 1.6 0.00 0.00 0.00 81 1019.3
20260504232005 23 296 0.0 1.6 0.00 0.00 0.00 82 1019.3
20260504231505 23 291 0.0 1.6 0.00 0.00 0.00 84 1019.3
20260504231004 23 278 0.0 0.0 0.00 0.00 0.00 86 1019.3
20260504230505 22 296 1.6 1.6 0.00 0.00 0.00 87 1019.3
20260504230005 21 294 1.6 1.6 0.00 0.00 0.00 90 1019.3
20260504225504 20 270 0.0 1.6 0.00 0.00 0.00 93 1019.3
20260504225004 20 267 1.6 1.6 0.00 0.00 0.00 94 1019.3
20260504224504 20 275 0.0 0.0 0.00 0.00 0.00 98 1019.3
20260504224004 19 272 0.0 1.6 0.00 0.00 0.00 99 1019.3
20260504223504 19 265 0.0 0.0 0.00 0.00 0.00 99 1019.3
20260504223006 18 280 0.0 1.6 0.00 0.00 0.00 99 1019.3
20260504222505 18 235 3.2 3.2 0.00 0.00 0.00 99 1019.3
20260504222004 18 272 0.0 1.6 0.00 0.00 0.00 99 1019.3
20260504221504 18 271 0.0 1.6 0.00 0.00 0.00 99 1019.3
20260504221004 18 287 0.0 1.6 0.00 0.00 0.00 99 1019.3
20260504220506 18 270 1.6 1.6 0.00 0.00 0.00 99 1019.3
20260504220004 18 279 0.0 0.0 0.00 0.00 0.00 99 1019.0
20260504215506 18 276 0.0 1.6 0.00 0.00 0.00 99 1019.0
20260504215004 18 268 1.6 3.2 0.00 0.00 0.00 99 1019.0
20260504214504 18 274 0.0 0.0 0.00 0.00 0.00 99 1018.3
20260504214004 17 265 1.6 1.6 0.00 0.00 0.00 99 1018.3
20260504213505 17 268 0.0 0.0 0.00 0.00 0.00 99 1018.3
20260504213004 17 256 0.0 0.0 0.00 0.00 0.00 99 1018.3
20260504212509 17 258 0.0 0.0 0.00 0.00 0.00 99 1019.0
20260504212007 17 258 0.0 0.0 0.00 0.00 0.00 99 1019.0
20260504211504 17 258 0.0 1.6 0.00 0.00 0.00 99 1019.0
20260504211005 17 258 0.0 0.0 0.00 0.00 0.00 99 1019.0
20260504210504 17 258 0.0 0.0 0.00 0.00 0.00 99 1019.0
20260504210004 17 258 0.0 0.0 0.00 0.00 0.00 99 1018.3
20260504205505 16 258 0.0 0.0 0.00 0.00 0.00 99 1018.3
20260504205004 17 258 0.0 0.0 0.00 0.00 0.00 99 1018.3
20260504204504 17 258 0.0 0.0 0.00 0.00 0.00 99 1018.3
20260504204004 16 258 0.0 0.0 0.00 0.00 0.00 99 1018.3
20260504203505 16 258 0.0 0.0 0.00 0.00 0.00 99 1017.9
20260504203004 16 258 0.0 0.0 0.00 0.00 0.00 99 1017.9
20260504202504 16 258 0.0 0.0 0.00 0.00 0.00 99 1017.9
20260504202005 16 259 0.0 0.0 0.00 0.00 0.00 99 1017.9
20260504201505 16 259 0.0 0.0 0.00 0.00 0.00 99 1017.9
20260504201006 16 259 1.6 1.6 0.00 0.00 0.00 99 1017.9
20260504200504 16 259 1.6 1.6 0.00 0.00 0.00 99 1017.9
20260504200004 16 259 0.0 0.0 0.00 0.00 0.00 99 1017.6
20260504195504 17 259 0.0 1.6 0.00 0.00 0.00 99 1017.6
20260504195005 17 259 0.0 0.0 0.00 0.00 0.00 99 1017.6
20260504194504 17 259 0.0 0.0 0.00 0.00 0.00 99 1017.6
20260504194004 17 259 0.0 0.0 0.00 0.00 0.00 99 1017.6
20260504193505 17 259 0.0 0.0 0.00 0.00 0.00 99 1017.3
20260504193004 17 259 0.0 0.0 0.00 0.00 0.00 99 1017.3
20260504192505 17 259 0.0 0.0 0.00 0.00 0.00 99 1017.3
20260504192004 17 259 0.0 0.0 0.00 0.00 0.00 99 1017.3
20260504191504 17 259 3.2 3.2 0.00 0.00 0.00 99 1017.3
20260504191008 16 259 0.0 0.0 0.00 0.00 0.00 99 1017.3
20260504190505 16 259 0.0 0.0 0.00 0.00 0.00 99 1017.3
20260504190004 16 259 0.0 0.0 0.00 0.00 0.00 99 1017.3
20260504185505 16 259 0.0 0.0 0.00 0.00 0.00 99 1017.3
20260504185004 16 259 0.0 0.0 0.00 0.00 0.00 99 1017.3
20260504184505 16 259 0.0 0.0 0.00 0.00 0.00 99 1017.3
20260504184005 16 259 0.0 0.0 0.00 0.00 0.00 99 1017.3
20260504183505 16 259 0.0 0.0 0.00 0.00 0.00 99 1017.3
20260504183005 16 259 0.0 0.0 0.00 0.00 0.00 99 1017.3
20260504182505 16 259 0.0 0.0 0.00 0.00 0.00 99 1017.3
20260504182005 16 259 0.0 0.0 0.13 0.00 0.00 99 1017.3
20260504181508 16 259 0.0 0.0 0.13 0.00 0.00 99 1017.3
20260504181005 16 259 0.0 0.0 0.00 0.00 0.00 99 1017.3
20260504180504 16 259 0.0 0.0 0.00 0.00 0.00 99 1017.3
20260504180005 17 259 0.0 0.0 0.00 0.00 0.00 99 1017.3
20260504175504 17 259 0.0 0.0 0.00 0.00 0.00 99 1017.3
20260504175004 17 259 0.0 0.0 0.00 0.00 0.00 99 1017.3
20260504174505 17 259 0.0 0.0 0.00 0.00 0.00 99 1017.3
20260504174004 17 259 1.6 1.6 0.00 0.00 0.00 99 1017.3
20260504173504 17 259 0.0 0.0 0.00 0.00 0.00 99 1017.3
20260504173005 17 259 0.0 0.0 0.00 0.00 0.00 99 1017.3
20260504172505 17 259 0.0 1.6 0.00 0.00 0.00 99 1017.3
20260504172004 17 259 0.0 0.0 0.00 0.00 0.00 99 1017.3
20260504171505 17 259 0.0 0.0 0.00 0.00 0.00 99 1017.3
20260504171005 17 259 0.0 0.0 0.00 0.00 0.00 99 1017.3
20260504170504 17 259 0.0 0.0 0.00 0.00 0.00 99 1017.3
20260504151005 17 258 0.0 0.0 0.00 0.00 0.00 99 1017.6
20260504150505 17 258 0.0 0.0 0.00 0.00 0.00 99 1017.6
20260504141005 18 259 0.0 0.0 0.00 0.00 0.00 99 1017.9
20260504140504 18 259 0.0 0.0 0.00 0.00 0.00 99 1017.9
20260504130505 18 260 0.0 0.0 0.00 0.00 0.00 99 1019.0